Regional Weather Roundup
Issued by NWS

Home | Current Version | Previous Version | Text Only | Print | Product List | Glossary On
Versions: 1 2 3 4 5 6 7 8 9 10 11 12 13 14 15 16 17 18 19 20 21 22 23 24 25 26 27 28 29 30 31 32 33 34 35 36 37 38 39 40 41 42 43 44 45 46 47 48 49 50
000
ASUS43 KBIS 201031
RWRND
NORTH DAKOTA REGIONAL WEATHER ROUNDUP
NATIONAL WEATHER SERVICE EASTERN NORTH DAKOTA/GRAND FORKS ND
400 AM CST WED NOV 20 2019

  NOTE: "FAIR" INDICATES FEW OR NO CLOUDS BELOW 12,000 FEET WITH NO
  SIGNIFICANT WEATHER AND/OR OBSTRUCTIONS TO VISIBILITY.

NDZ001>003-009>011-017-201100-
...NORTHWEST NORTH DAKOTA...

CITY           SKY/WX    TMP DP  RH WIND       PRES   REMARKS
WILLISTON      NOT AVBL
MINOT          CLOUDY    33  30  88 N6        29.90R WCI  28
MINOT AFB      FLURRIES  32  30  93 NE7       29.91R WCI  26
$$

NDZ018>021-031>035-040>046-201100-
...SOUTHWEST NORTH DAKOTA...

CITY           SKY/WX    TMP DP  RH WIND       PRES   REMARKS
BISMARCK       CLOUDY    33  30  88 E13       29.84S WCI  24
DICKINSON      CLOUDY    33  30  88 E12       29.76R WCI  24
GARRISON         N/A     32  29  88 E9        29.86R WCI  24
HETTINGER      CLOUDY    31  30  96 E8        29.74S WCI  23
$$

NDZ004>008-012>016-024-026-027-054-201100-
...NORTHEAST NORTH DAKOTA...

CITY           SKY/WX    TMP DP  RH WIND       PRES   REMARKS
GRAND FORKS    CLOUDY    32  28  85 SE5       29.97S WCI  27
GRAND FORKS AF CLOUDY    33  30  91 CALM      29.96F
DEVILS LAKE    CLOUDY    31  30  96 CALM      29.95S
$$

NDZ022-023-025-028>030-036>039-047>053-201100-
...SOUTHEAST NORTH DAKOTA...

CITY           SKY/WX    TMP DP  RH WIND       PRES   REMARKS
JAMESTOWN      CLOUDY    33  30  88 E8        29.91S WCI  26
FARGO          CLOUDY    34  31  88 NE3       29.97S
WAHPETON         N/A     32  30  93 E3        29.97R
$$



USA.gov is the U.S. government's official web portal to all federal, state and local government web resources and services.